Location: Aboncourt
(47.7710°N, 5.9826°E)
Time: 03:10:48
(UTC+00:00)

ALOS 2 - Pass Details

Date: 05 July 2020
Orbit: 630 x 632 km, 97.9° (Epoch: 03 August)

Event Time Altitude Azimuth Distance (km) Brightness Sun altitude
Exits shadow 23:35:26 33° 227° (SW) 1,063 3.4 -19.6°
Maximum altitude 23:36:33 39° 262° (W) 947 3.4 -19.6°
Drops below altitude 10° 23:40:42 10° 332° (NNW) 2,024 6.1 -19.6°
Sets 23:43:01 0° 340° (NNW) 2,937 7.3 -19.6°
